TimeEST,TemperatureF,Dew PointF,Humidity,Sea Level PressureIn,VisibilityMPH,Wind Direction,Wind SpeedMPH,Gust SpeedMPH,PrecipitationIn,Events,Conditions,WindDirDegrees,DateUTC
12:54 AM,32.0,28.0,85,30.10,-9999.0,North,-9999.0,-,N/A,,Unknown,0,2013-03-06 05:54:00
1:54 AM,32.0,28.0,85,30.11,-9999.0,North,-9999.0,-,N/A,,Unknown,0,2013-03-06 06:54:00
2:54 AM,30.9,27.0,85,30.11,-9999.0,North,-9999.0,-,N/A,,Unknown,0,2013-03-06 07:54:00
3:54 AM,30.9,27.0,85,30.11,-9999.0,North,-9999.0,-,N/A,,Unknown,0,2013-03-06 08:54:00
4:54 AM,30.9,26.1,82,30.12,-9999.0,North,-9999.0,-,N/A,,Unknown,0,2013-03-06 09:54:00
5:54 AM,34.0,27.0,75,30.13,-9999.0,North,-9999.0,-,N/A,,Unknown,0,2013-03-06 10:54:00
6:54 AM,35.1,26.1,70,30.15,-9999.0,North,-9999.0,-,N/A,,Unknown,0,2013-03-06 11:54:00
7:54 AM,36.0,27.0,70,30.17,-9999.0,North,-9999.0,-,N/A,,Unknown,0,2013-03-06 12:54:00
8:54 AM,37.0,25.0,62,30.18,-9999.0,North,-9999.0,-,N/A,,Unknown,0,2013-03-06 13:54:00
9:54 AM,37.0,24.1,59,30.19,-9999.0,North,-9999.0,-,N/A,,Unknown,0,2013-03-06 14:54:00
10:54 AM,37.9,21.9,53,30.20,-9999.0,North,-9999.0,-,N/A,,Unknown,0,2013-03-06 15:54:00
11:54 AM,37.0,21.9,54,30.19,-9999.0,North,-9999.0,-,N/A,,Unknown,0,2013-03-06 16:54:00
12:54 PM,37.0,21.9,54,30.19,-9999.0,North,-9999.0,-,N/A,,Unknown,0,2013-03-06 17:54:00
1:54 PM,39.0,21.9,50,30.16,-9999.0,North,-9999.0,-,N/A,,Unknown,0,2013-03-06 18:54:00
2:54 PM,37.9,21.0,51,30.17,-9999.0,North,-9999.0,-,N/A,,Unknown,0,2013-03-06 19:54:00
3:54 PM,37.0,21.9,54,30.18,-9999.0,North,-9999.0,-,N/A,,Unknown,0,2013-03-06 20:54:00
4:54 PM,37.0,21.9,54,30.18,-9999.0,North,-9999.0,-,N/A,,Unknown,0,2013-03-06 21:54:00
5:54 PM,35.1,23.0,61,30.19,-9999.0,North,-9999.0,-,N/A,,Unknown,0,2013-03-06 22:54:00
6:54 PM,34.0,23.0,64,30.20,-9999.0,North,-9999.0,-,N/A,,Unknown,0,2013-03-06 23:54:00
7:54 PM,33.1,24.1,70,30.22,-9999.0,North,-9999.0,-,N/A,,Unknown,0,2013-03-07 00:54:00
8:54 PM,32.0,21.0,64,30.21,-9999.0,North,-9999.0,-,N/A,,Unknown,0,2013-03-07 01:54:00
9:54 PM,32.0,21.0,64,30.20,-9999.0,North,-9999.0,-,N/A,,Unknown,0,2013-03-07 02:54:00
10:54 PM,30.9,19.0,61,30.19,-9999.0,North,-9999.0,-,N/A,,Unknown,0,2013-03-07 03:54:00
11:54 PM,30.9,19.0,61,30.19,-9999.0,North,-9999.0,-,N/A,,Unknown,0,2013-03-07 04:54:00